period_start,C,m1,H,J0,J1,J2,J3,J4,J5,JA,JB,JC,JD,JJ,JK,JN,#
2017-04-14 00:01:11,0.14,1.04,0.00,22.89,26.23,30.10,14.48,47.89,1011.24,2033.01,3111.80,2801.49,3213.38,599.86,592.96,6.59,0000 0000 0000 0000 000000
2017-04-14 00:06:12,0.14,1.05,0.00,22.91,26.25,30.10,14.44,48.02,1011.23,2033.00,3109.12,2799.60,3211.20,599.98,593.04,6.64,0000 0000 0000 0000 000000
2017-04-14 00:11:14,0.13,1.06,0.00,22.94,26.27,30.12,14.48,47.89,1011.24,2033.00,3106.73,2797.80,3209.16,599.79,592.68,6.69,0000 0000 0000 0000 000000
2017-04-14 00:16:15,0.13,1.06,0.00,22.94,26.29,30.15,14.40,47.92,1011.20,2032.99,3104.29,2796.01,3207.12,599.96,592.90,6.74,0000 0000 0000 0000 000000
2017-04-14 00:21:16,0.13,1.07,0.00,22.96,26.31,30.15,14.50,47.98,1011.12,2032.98,3101.68,2794.18,3205.07,599.95,592.77,6.79,0000 0000 0000 0000 000000
2017-04-14 00:26:17,0.13,1.08,0.00,23.01,26.33,30.17,14.41,47.88,1011.20,2032.98,3099.18,2792.36,3202.99,599.96,592.85,6.84,0000 0000 0000 0000 000000
2017-04-14 00:31:18,0.13,1.08,0.00,23.04,26.36,30.17,14.39,47.94,1011.22,2032.97,3096.85,2790.63,3200.86,599.53,592.31,6.89,0000 0000 0000 0000 000000
2017-04-14 00:36:19,0.12,1.09,0.00,23.02,26.38,30.22,14.46,47.98,1010.96,2032.94,3094.41,2788.80,3198.86,599.97,592.67,6.94,0000 0000 0000 0000 000000
2017-04-14 00:41:20,0.10,1.10,0.00,23.10,26.41,30.22,14.47,48.04,1010.81,2032.67,3091.87,2786.92,3196.78,600.09,592.45,6.99,0000 0000 0000 0000 000000
2017-04-14 00:46:22,0.10,1.10,0.00,23.18,26.44,30.22,14.32,48.04,1010.77,2032.27,3089.20,2784.97,3194.64,599.43,591.66,7.04,0000 0000 0000 0000 000000
2017-04-14 00:51:23,0.10,1.11,0.00,23.20,26.46,30.23,14.43,47.93,1010.76,2032.05,3086.85,2783.17,3192.43,600.34,592.51,7.09,0000 0000 0000 0000 000000
2017-04-14 00:56:24,0.14,1.11,0.00,23.21,26.50,30.27,14.40,47.96,1010.76,2032.01,3084.31,2781.22,3190.24,599.95,592.11,7.14,0000 0000 0000 0000 000000
2017-04-14 01:01:26,0.13,1.12,0.00,23.26,26.53,30.25,14.46,47.94,1010.77,2032.00,3081.75,2779.37,3188.11,599.91,592.02,7.19,0000 0000 0000 0000 000000
2017-04-14 01:06:27,0.13,1.13,0.00,23.31,26.56,30.29,14.48,47.97,1010.76,2032.00,3079.35,2777.51,3186.01,600.44,592.44,7.24,0000 0000 0000 0000 000000
2017-04-14 01:11:29,0.14,1.13,0.00,23.33,26.60,30.34,14.41,48.06,1010.76,2031.98,3076.85,2775.63,3183.82,599.80,591.84,7.29,0000 0000 0000 0000 000000
2017-04-14 01:16:30,0.13,1.14,0.00,23.37,26.63,30.35,14.44,48.07,1010.76,2031.88,3074.20,2773.67,3181.56,600.22,592.06,7.34,0000 0000 0000 0000 000000
2017-04-14 01:21:32,0.09,1.15,0.00,23.44,26.67,30.37,14.41,47.95,1010.76,2031.47,3071.53,2771.67,3179.29,600.11,591.83,7.39,0000 0000 0000 0000 000000
2017-04-14 01:26:33,0.11,1.15,0.00,23.46,26.71,30.39,14.38,48.14,1010.72,2031.10,3069.12,2769.74,3177.09,599.84,591.49,7.44,0000 0000 0000 0000 000000
2017-04-14 01:31:34,0.12,1.16,0.00,23.49,26.75,30.42,14.46,48.13,1010.71,2031.01,3066.70,2767.97,3174.98,600.06,591.80,7.49,0000 0000 0000 0000 000000
2017-04-14 01:36:36,0.14,1.17,0.00,23.56,26.78,30.47,14.48,48.13,1010.76,2031.00,3064.15,2766.03,3172.70,600.38,591.85,7.54,0000 0000 0000 0000 000000
2017-04-14 01:41:37,0.13,1.17,0.00,23.57,26.82,30.51,14.46,48.04,1010.76,2030.95,3061.56,2764.17,3170.50,599.93,591.39,7.59,0000 0000 0000 0000 000000
2017-04-14 01:46:39,0.11,1.18,0.00,23.60,26.86,30.51,14.40,47.96,1010.77,2030.70,3059.05,2762.30,3168.39,599.92,591.35,7.64,0000 0000 0000 0000 000000
2017-04-14 01:51:40,0.10,1.18,0.00,23.70,26.89,30.55,14.46,47.97,1010.77,2030.20,3056.32,2760.25,3166.07,599.88,591.12,7.69,0000 0000 0000 0000 000000
2017-04-14 01:56:41,0.20,1.19,0.00,23.73,26.93,30.59,14.45,48.05,1010.75,2030.01,3052.56,2757.46,3162.89,600.40,591.46,7.74,0000 0000 0000 0000 000000
2017-04-14 02:01:42,0.15,1.20,0.00,23.76,26.96,30.65,14.44,48.10,1010.74,2030.00,3049.71,2755.30,3160.43,600.18,591.25,7.79,0000 0000 0000 0000 000000
2017-04-14 02:06:44,0.12,1.21,0.00,23.84,26.99,30.66,14.41,47.92,1010.76,2030.00,3047.40,2753.60,3158.45,600.04,591.00,7.84,0000 0000 0000 0000 000000
2017-04-14 02:11:45,0.11,1.21,0.00,23.87,27.02,30.71,14.40,47.94,1010.77,2029.99,3045.24,2751.96,3156.55,600.32,591.15,7.89,0000 0000 0000 0000 000000
2017-04-14 02:16:46,0.11,1.22,0.00,23.90,27.05,30.75,14.36,47.90,1010.77,2029.92,3043.06,2750.47,3154.63,599.95,590.74,7.94,0000 0000 0000 0000 000000
2017-04-14 02:21:47,0.11,1.23,0.00,23.93,27.07,30.78,14.40,47.98,1010.78,2029.67,3040.41,2748.61,3152.46,600.22,590.92,7.99,0000 0000 0000 0000 000000
2017-04-14 02:26:48,0.05,1.23,0.00,24.07,27.10,30.83,14.40,47.93,1010.77,2029.16,3038.31,2747.09,3150.71,599.74,590.19,8.04,0000 0000 0000 0000 000000
2017-04-14 02:31:49,0.07,1.23,0.00,24.42,27.13,30.85,14.31,47.80,1010.76,2029.02,3036.64,2745.92,3149.34,599.98,589.76,8.09,0000 0000 0000 0000 000000
2017-04-14 02:36:50,0.09,1.24,0.00,24.20,27.16,30.86,14.39,47.99,1010.75,2029.01,3034.89,2744.74,3147.90,599.94,590.28,8.14,0000 0000 0000 0000 000000
2017-04-14 02:41:52,0.13,1.24,0.00,24.32,27.18,31.00,14.28,47.97,1010.76,2029.00,3032.38,2743.12,3146.15,599.63,589.60,8.19,0000 0000 0000 0000 000000
2017-04-14 02:46:53,0.19,1.25,0.00,24.21,27.20,30.98,14.37,47.82,1010.76,2028.99,3028.99,2740.90,3143.54,599.96,590.14,8.24,0000 0000 0000 0000 000000
2017-04-14 02:51:55,0.18,1.26,0.00,24.16,27.22,30.95,14.38,47.91,1010.76,2028.99,3025.07,2738.34,3140.65,599.77,590.11,8.29,0000 0000 0000 0000 000000
2017-04-14 02:56:56,0.12,1.27,0.00,24.16,27.22,31.07,14.37,47.90,1010.76,2028.98,3022.64,2736.71,3138.79,599.91,590.26,8.35,0000 0000 0000 0000 000000
2017-04-14 03:01:57,0.11,1.28,0.00,24.16,27.22,31.09,14.40,47.88,1010.76,2028.96,3020.50,2735.25,3137.02,600.15,590.44,8.40,0000 0000 0000 0000 000000
2017-04-14 03:06:59,0.12,1.28,0.00,24.18,27.22,31.07,14.36,47.75,1010.77,2028.96,3018.17,2733.53,3135.18,599.96,590.26,8.45,0000 0000 0000 0000 000000
2017-04-14 03:12:00,0.08,1.29,0.00,24.18,27.23,31.02,14.38,47.77,1010.77,2028.94,3016.40,2732.22,3133.76,600.26,590.54,8.50,0000 0000 0000 0000 000000
2017-04-14 03:17:01,0.16,1.30,0.00,24.19,27.24,30.97,14.36,47.83,1010.76,2028.89,3013.76,2729.93,3131.39,600.18,590.47,8.55,0000 0000 0000 0000 000000
2017-04-14 03:22:02,0.11,1.30,0.00,24.29,27.24,30.94,14.32,47.69,1010.76,2028.82,3011.44,2728.00,3129.41,600.13,590.18,8.60,0000 0000 0000 0000 000000
2017-04-14 03:27:04,0.09,1.31,0.00,24.63,27.25,30.91,14.33,47.82,1010.76,2028.60,3009.28,2726.46,3127.60,599.71,589.06,8.65,0000 0000 0000 0000 000000
2017-04-14 03:32:05,0.13,1.31,0.00,24.32,27.26,30.91,14.37,47.92,1010.76,2028.26,3006.54,2724.67,3125.60,600.44,590.53,8.70,0000 0000 0000 0000 000000
2017-04-14 03:37:06,0.11,1.32,0.00,24.42,27.27,30.96,14.33,47.94,1010.76,2028.16,3003.87,2723.20,3123.83,599.83,589.55,8.75,0000 0000 0000 0000 000000
2017-04-14 03:42:08,0.14,1.32,0.00,24.48,27.28,31.02,14.38,48.00,1010.71,2028.17,3000.93,2721.42,3121.84,599.83,589.46,8.80,0000 0000 0000 0000 000000
2017-04-14 03:47:09,0.16,1.33,0.00,24.40,27.29,31.05,14.33,48.03,1010.68,2028.09,2997.08,2719.22,3119.36,599.81,589.61,8.85,0000 0000 0000 0000 000000
2017-04-14 03:52:10,0.13,1.34,0.00,24.37,27.29,31.06,14.32,47.84,1010.74,2028.07,2994.62,2717.53,3117.46,599.86,589.75,8.90,0000 0000 0000 0000 000000
2017-04-14 03:57:12,0.17,1.35,0.00,24.35,27.29,31.06,14.33,47.89,1010.75,2028.06,2991.61,2715.45,3115.12,600.25,590.08,8.95,0000 0000 0000 0000 000000
2017-04-14 04:02:13,0.17,1.36,0.00,24.36,27.27,31.00,14.35,47.88,1010.76,2028.05,2988.18,2713.19,3112.58,600.12,590.06,9.00,0000 0000 0000 0000 000000
2017-04-14 04:07:14,0.16,1.36,0.00,24.38,27.27,31.00,14.38,47.82,1010.76,2028.04,2985.36,2711.21,3110.29,599.65,589.40,9.05,0000 0000 0000 0000 000000
2017-04-14 04:12:16,0.16,1.37,0.00,24.49,27.27,30.96,14.30,47.70,1010.75,2028.05,2982.35,2709.10,3107.94,600.02,589.66,9.10,0000 0000 0000 0000 000000
2017-04-14 04:17:17,0.14,1.38,0.00,24.77,27.29,30.92,14.31,47.79,1010.75,2028.05,2979.67,2707.15,3105.66,600.23,589.26,9.15,0000 0000 0000 0000 000000
2017-04-14 04:22:19,0.15,1.39,0.00,24.42,27.30,30.87,14.38,47.97,1010.76,2028.03,2976.98,2705.19,3103.49,600.05,589.80,9.20,0000 0000 0000 0000 000000
2017-04-14 04:27:20,0.19,1.40,0.00,24.47,27.30,30.92,14.31,47.81,1010.76,2028.00,2973.52,2702.92,3100.87,600.05,589.71,9.25,0000 0000 0000 0000 000000
2017-04-14 04:32:21,0.23,1.41,0.00,24.55,27.30,30.94,14.33,47.82,1010.76,2028.00,2968.95,2700.17,3097.81,600.33,589.83,9.30,0000 0000 0000 0000 000000
2017-04-14 04:37:23,0.18,1.42,0.00,24.51,27.30,31.00,14.31,47.89,1010.77,2028.00,2965.23,2697.83,3095.17,600.00,589.49,9.35,0000 0000 0000 0000 000000
2017-04-14 04:42:24,0.14,1.43,0.00,24.44,27.30,31.01,14.34,47.80,1010.80,2028.00,2962.30,2695.90,3092.98,600.13,589.93,9.40,0000 0000 0000 0000 000000
2017-04-14 04:47:25,0.11,1.43,0.00,24.41,27.30,31.02,14.41,47.95,1010.80,2028.00,2959.94,2694.41,3091.26,600.01,589.74,9.45,0000 0000 0000 0000 000000
2017-04-14 04:52:27,0.08,1.44,0.00,24.40,27.30,31.00,14.38,47.84,1010.78,2028.00,2958.22,2693.16,3089.86,600.36,590.17,9.50,0000 0000 0000 0000 000000
2017-04-14 04:57:28,0.10,1.44,0.00,24.41,27.28,30.94,14.35,47.71,1010.77,2028.01,2956.52,2691.96,3088.51,600.08,589.88,9.55,0000 0000 0000 0000 000000
2017-04-14 05:02:30,0.16,1.45,0.00,24.54,27.27,30.89,14.35,47.70,1010.77,2028.01,2953.86,2690.08,3086.31,600.21,589.78,9.60,0000 0000 0000 0000 000000
2017-04-14 05:07:31,0.18,1.46,0.00,24.79,27.28,30.86,14.30,47.76,1010.76,2028.02,2950.65,2687.63,3083.56,599.96,589.00,9.65,0000 0000 0000 0000 000000
2017-04-14 05:12:32,0.16,1.47,0.00,24.41,27.28,30.84,14.33,47.98,1010.77,2028.01,2947.72,2685.65,3081.15,600.03,589.87,9.70,0000 0000 0000 0000 000000
2017-04-14 05:17:33,0.10,1.47,0.00,24.48,27.29,30.90,14.31,47.92,1010.79,2028.01,2945.51,2683.99,3079.37,600.10,589.82,9.75,0000 0000 0000 0000 000000
2017-04-14 05:22:35,0.12,1.48,0.00,24.58,27.30,30.95,14.35,47.98,1010.78,2028.00,2943.54,2682.61,3077.73,600.03,589.38,9.80,0000 0000 0000 0000 000000
2017-04-14 05:27:36,0.14,1.49,0.00,24.47,27.30,30.96,14.32,47.82,1010.77,2028.00,2940.99,2680.88,3075.78,600.14,589.80,9.85,0000 0000 0000 0000 000000
2017-04-14 05:32:37,0.14,1.49,0.00,24.42,27.29,31.02,14.40,47.98,1010.76,2028.01,2938.27,2679.14,3073.70,600.10,589.91,9.90,0000 0000 0000 0000 000000
2017-04-14 05:37:38,0.19,1.50,0.00,24.41,27.27,30.96,14.28,47.88,1010.79,2028.02,2934.92,2676.85,3071.23,599.64,589.45,9.95,0000 0000 0000 0000 000000
2017-04-14 05:42:40,0.15,1.51,0.00,24.45,27.27,30.95,14.40,47.88,1010.80,2028.06,2932.03,2674.91,3069.10,599.92,589.56,10.00,0000 0000 0000 0000 000000
2017-04-14 05:47:41,0.16,1.52,0.00,24.75,27.27,30.86,14.36,47.80,1010.82,2028.04,2929.15,2672.85,3066.79,600.24,589.43,10.05,0000 0000 0000 0000 000000
2017-04-14 05:52:42,0.12,1.53,0.00,24.45,27.27,30.81,14.31,47.92,1010.79,2028.01,2926.59,2671.11,3064.80,600.14,589.88,10.10,0000 0000 0000 0000 000000
2017-04-14 05:57:44,0.14,1.53,0.00,24.50,27.27,30.86,14.30,47.87,1010.82,2028.06,2924.02,2669.50,3062.91,599.83,589.44,10.15,0000 0000 0000 0000 000000
2017-04-14 06:02:45,0.11,1.54,0.00,24.58,27.27,30.85,14.38,48.12,1010.84,2028.08,2921.88,2667.94,3061.21,600.42,589.68,10.20,0000 0000 0000 0000 000000
2017-04-14 06:07:46,0.14,1.55,0.00,24.62,27.27,30.85,14.28,47.82,1010.87,2028.06,2919.48,2666.20,3059.24,600.37,589.76,10.25,0000 0000 0000 0000 000000
2017-04-14 06:12:47,0.17,1.56,0.00,24.72,27.27,30.81,14.32,47.89,1011.05,2028.05,2916.50,2664.11,3056.81,600.20,589.55,10.30,0000 0000 0000 0000 000000
2017-04-14 06:17:48,0.13,1.56,0.00,24.71,27.26,30.80,14.23,47.80,1011.16,2028.06,2914.16,2662.48,3054.97,599.70,589.14,10.35,0000 0000 0000 0000 000000
2017-04-14 06:22:50,0.14,1.57,0.00,24.66,27.26,30.80,14.28,47.78,1011.22,2028.07,2911.72,2660.74,3053.02,600.01,589.56,10.40,0000 0000 0000 0000 000000
2017-04-14 06:27:51,0.09,1.58,0.00,24.64,27.25,30.77,14.36,47.90,1011.24,2028.09,2909.93,2659.37,3051.50,599.91,589.62,10.45,0000 0000 0000 0000 000000
2017-04-14 06:32:52,0.03,1.58,0.00,24.52,27.25,30.75,14.31,47.95,1011.24,2028.07,2908.90,2658.87,3050.76,599.60,589.51,10.50,0000 0000 0000 0000 000000
2017-04-14 06:37:54,0.05,1.58,0.00,24.46,27.25,30.75,14.26,47.80,1011.24,2028.10,2908.04,2658.10,3050.02,599.65,589.63,10.55,0000 0000 0000 0000 000000
2017-04-14 06:42:55,0.05,1.58,0.00,24.43,27.23,30.76,14.35,48.02,1011.25,2028.14,2907.16,2657.70,3049.34,600.05,589.97,10.61,0000 0000 0000 0000 000000
2017-04-14 06:47:56,0.06,1.59,0.00,24.43,27.22,30.74,14.30,47.93,1011.25,2028.22,2906.22,2657.02,3048.72,600.05,590.16,10.66,0000 0000 0000 0000 000000
2017-04-14 06:52:57,0.07,1.59,0.00,24.45,27.22,30.71,14.33,47.77,1011.25,2028.44,2905.41,2656.57,3048.01,600.09,590.08,10.71,0000 0000 0000 0000 000000
2017-04-14 06:57:59,0.02,1.59,0.00,24.72,27.22,30.72,14.33,47.83,1011.26,2028.35,2904.54,2655.96,3047.25,599.75,589.24,10.76,0000 0000 0000 0000 000000
2017-04-14 07:03:00,0.05,1.59,0.00,24.70,27.22,30.73,14.29,47.83,1011.26,2028.19,2903.55,2655.14,3046.43,599.73,589.33,10.81,0000 0000 0000 0000 000000
2017-04-14 07:08:01,0.07,1.60,0.00,24.42,27.22,30.79,14.30,47.97,1011.26,2028.20,2902.53,2654.59,3045.76,599.79,589.86,10.86,0000 0000 0000 0000 000000
2017-04-14 07:13:03,0.03,1.60,0.00,24.57,27.22,30.84,14.39,47.87,1011.25,2028.24,2901.67,2654.00,3045.00,599.94,589.68,10.91,0000 0000 0000 0000 000000
2017-04-14 07:18:04,0.05,1.60,0.00,24.64,27.24,30.83,14.35,47.90,1011.25,2028.16,2900.72,2653.28,3044.21,599.93,589.62,10.96,0000 0000 0000 0000 000000
2017-04-14 07:23:05,0.05,1.60,0.00,24.59,27.25,30.77,14.32,47.68,1011.26,2028.19,2899.79,2652.80,3043.53,599.99,589.84,11.01,0000 0000 0000 0000 000000
2017-04-14 07:28:06,0.05,1.61,0.00,24.65,27.25,30.77,14.31,47.82,1011.26,2028.25,2898.68,2652.02,3042.74,599.92,589.53,11.06,0000 0000 0000 0000 000000
2017-04-14 07:33:08,0.08,1.61,0.00,24.76,27.25,30.74,14.29,47.67,1011.26,2028.42,2897.49,2651.27,3041.87,600.22,589.60,11.11,0000 0000 0000 0000 000000
2017-04-14 07:38:09,0.03,1.61,0.00,24.63,27.25,30.76,14.29,47.87,1011.26,2028.21,2896.23,2650.53,3041.01,600.25,589.97,11.16,0000 0000 0000 0000 000000
2017-04-14 07:43:10,0.03,1.62,0.00,24.77,27.25,30.73,14.32,47.83,1011.26,2028.11,2895.21,2649.97,3040.15,600.25,589.51,11.21,0000 0000 0000 0000 000000
2017-04-14 07:48:11,0.06,1.62,0.00,24.78,27.25,30.73,14.25,47.80,1011.29,2028.14,2894.30,2649.18,3039.63,599.84,589.24,11.26,0000 0000 0000 0000 000000
2017-04-14 07:53:13,0.05,1.62,0.00,24.79,27.25,30.71,14.25,47.78,1011.45,2028.09,2893.35,2648.73,3038.77,599.60,589.17,11.31,0000 0000 0000 0000 000000
2017-04-14 07:58:15,0.16,1.63,0.00,24.80,27.25,30.69,14.25,47.83,1011.45,2028.06,2891.07,2646.96,3036.75,599.85,589.24,11.36,0000 0000 0000 0000 000000
2017-04-14 08:03:16,0.22,1.64,0.00,24.82,27.24,30.65,14.32,47.84,1011.57,2028.06,2887.54,2644.25,3033.78,599.76,589.29,11.41,0000 0000 0000 0000 000000
2017-04-14 08:08:18,0.21,1.65,0.00,24.84,27.22,30.65,14.34,47.82,1011.68,2028.09,2883.93,2641.52,3030.70,599.96,589.47,11.46,0000 0000 0000 0000 000000
2017-04-14 08:13:19,0.27,1.66,0.00,24.87,27.22,30.63,14.22,47.73,1011.70,2028.09,2879.90,2638.45,3027.23,600.04,589.47,11.51,0000 0000 0000 0000 000000
2017-04-14 08:18:20,0.33,1.68,0.00,24.87,27.22,30.61,14.37,47.75,1011.70,2028.09,2874.40,2634.37,3022.65,599.92,589.37,11.56,0000 0000 0000 0000 000000
2017-04-14 08:23:22,0.32,1.69,0.00,24.87,27.21,30.61,14.24,47.81,1011.70,2028.04,2868.46,2630.11,3017.84,599.77,589.21,11.61,0000 0000 0000 0000 000000
2017-04-14 08:28:23,0.26,1.71,0.00,24.89,27.20,30.62,14.36,47.88,1011.72,2028.08,2863.99,2627.09,3014.43,600.27,589.66,11.66,0000 0000 0000 0000 000000
2017-04-14 08:33:24,0.30,1.72,0.00,24.90,27.20,30.61,14.26,47.85,1011.70,2028.11,2858.88,2623.53,3010.39,600.06,589.52,11.71,0000 0000 0000 0000 000000
2017-04-14 08:38:26,0.28,1.73,0.00,24.88,27.19,30.61,14.19,47.73,1011.73,2028.14,2853.99,2620.24,3006.64,599.56,588.98,11.76,0000 0000 0000 0000 000000
2017-04-14 08:43:27,0.28,1.75,0.00,24.88,27.17,30.62,14.31,47.80,1011.72,2028.33,2849.25,2617.10,3003.15,599.77,589.16,11.81,0000 0000 0000 0000 000000
2017-04-14 08:48:29,0.31,1.76,0.00,24.87,27.17,30.63,14.36,47.75,1011.72,2028.45,2844.09,2613.61,2999.23,600.25,589.69,11.86,0000 0000 0000 0000 000000
2017-04-14 08:53:30,0.34,1.78,0.00,24.88,27.17,30.62,14.35,47.77,1011.73,2028.78,2838.66,2609.78,2994.91,600.28,589.66,11.91,0000 0000 0000 0000 000000
2017-04-14 08:58:32,0.27,1.80,0.00,24.88,27.15,30.59,14.30,47.77,1011.73,2028.85,2833.85,2606.61,2991.38,600.19,589.61,11.96,0000 0000 0000 0000 000000
2017-04-14 09:03:33,0.23,1.81,0.00,24.85,27.15,30.59,14.31,47.87,1011.73,2028.87,2829.42,2603.79,2988.19,600.07,589.55,12.01,0000 0000 0000 0000 000000
2017-04-14 09:08:34,0.25,1.82,0.00,24.83,27.15,30.58,14.32,47.83,1011.73,2028.92,2825.11,2600.97,2985.02,599.94,589.61,12.06,0000 0000 0000 0000 000000
2017-04-14 09:13:35,0.21,1.83,0.00,24.81,27.13,30.61,14.28,47.78,1011.73,2028.92,2821.14,2598.34,2982.03,600.20,589.78,12.11,0000 0000 0000 0000 000000
2017-04-14 09:18:37,0.22,1.84,0.00,24.81,27.12,30.58,14.44,47.82,1011.73,2028.92,2817.49,2595.73,2979.07,600.49,590.05,12.16,0000 0000 0000 0000 000000
2017-04-14 09:23:38,0.31,1.86,0.00,24.78,27.12,30.58,14.20,47.77,1011.73,2028.94,2812.65,2592.07,2975.02,599.89,589.53,12.21,0000 0000 0000 0000 000000
2017-04-14 09:28:39,0.28,1.87,0.00,24.76,27.10,30.56,14.29,47.86,1011.73,2028.95,2808.06,2588.67,2971.13,599.89,589.56,12.26,0000 0000 0000 0000 000000
2017-04-14 09:33:40,0.30,1.89,0.00,24.75,27.09,30.54,14.30,47.92,1011.75,2028.97,2803.17,2585.09,2967.10,600.09,589.67,12.31,0000 0000 0000 0000 000000
2017-04-14 09:38:42,0.26,1.90,0.00,24.74,27.07,30.54,14.34,47.88,1011.75,2028.96,2798.58,2581.77,2963.33,600.32,590.02,12.36,0000 0000 0000 0000 000000
2017-04-14 09:43:43,0.26,1.92,0.00,24.70,27.06,30.50,14.24,47.90,1011.79,2028.98,2794.29,2578.68,2959.91,599.69,589.45,12.41,0000 0000 0000 0000 000000
2017-04-14 09:48:44,0.36,1.93,0.00,24.71,27.05,30.49,14.37,47.95,1011.90,2028.99,2788.90,2574.88,2955.62,600.08,589.77,12.46,0000 0000 0000 0000 000000
2017-04-14 09:53:46,0.30,1.95,0.00,24.68,27.02,30.47,14.30,47.92,1012.02,2028.99,2783.43,2571.01,2951.35,600.00,590.01,12.51,0000 0000 0000 0000 000000
2017-04-14 09:58:47,0.29,1.96,0.00,24.65,27.01,30.44,14.39,47.99,1012.15,2028.99,2778.85,2567.56,2947.47,600.27,590.38,12.56,0000 0000 0000 0000 000000
2017-04-14 10:03:49,0.23,1.98,0.00,24.64,27.00,30.44,14.31,47.94,1012.22,2028.99,2775.14,2564.49,2944.08,599.87,590.06,12.61,0000 0000 0000 0000 000000
2017-04-14 10:08:50,0.12,1.99,0.00,24.61,26.98,30.42,14.28,48.02,1012.22,2029.00,2772.93,2562.80,2942.24,600.26,590.48,12.66,0000 0000 0000 0000 000000
2017-04-14 10:13:51,0.07,1.99,0.00,24.60,26.96,30.39,14.27,48.01,1012.22,2029.00,2771.56,2561.85,2941.03,599.62,589.94,12.71,0000 0000 0000 0000 000000
2017-04-14 10:18:53,0.06,1.99,0.00,24.60,26.95,30.38,14.37,47.95,1012.22,2029.00,2770.49,2561.05,2940.09,600.02,590.11,12.76,0000 0000 0000 0000 000000
2017-04-14 10:23:54,0.05,2.00,0.00,24.51,26.93,30.35,14.34,47.92,1012.22,2029.02,2769.61,2560.64,2939.54,600.29,590.65,12.81,0000 0000 0000 0000 000000
2017-04-14 10:28:55,0.03,2.00,0.00,24.50,26.92,30.32,14.35,47.90,1012.22,2029.06,2768.93,2560.04,2939.00,599.93,590.23,12.87,0000 0000 0000 0000 000000
2017-04-14 10:33:56,0.08,2.00,0.00,24.68,26.90,30.34,14.38,47.97,1012.23,2029.15,2767.86,2559.60,2938.24,600.21,590.32,12.92,0000 0000 0000 0000 000000
2017-04-14 10:38:57,0.08,2.01,0.00,24.65,26.90,30.33,14.33,47.89,1012.23,2029.23,2766.10,2558.87,2937.26,600.11,590.21,12.97,0000 0000 0000 0000 000000
2017-04-14 10:43:59,0.09,2.01,0.00,24.67,26.88,30.36,14.25,47.86,1012.24,2029.43,2764.40,2558.01,2936.17,599.89,590.02,13.02,0000 0000 0000 0000 000000
2017-04-14 10:49:00,0.06,2.01,0.00,24.64,26.87,30.37,14.31,47.78,1012.24,2029.42,2763.10,2557.20,2935.40,599.92,590.07,13.07,0000 0000 0000 0000 000000
2017-04-14 10:54:01,0.07,2.02,0.00,24.64,26.87,30.40,14.32,47.76,1012.24,2029.52,2762.14,2556.79,2934.68,600.04,590.23,13.12,0000 0000 0000 0000 000000
2017-04-14 10:59:03,0.06,2.02,0.00,24.63,26.87,30.44,14.27,47.86,1012.26,2029.60,2761.17,2556.04,2934.01,599.71,590.01,13.17,0000 0000 0000 0000 000000
2017-04-14 11:04:04,0.09,2.02,0.00,24.60,26.87,30.42,14.32,47.69,1012.26,2029.93,2760.29,2555.64,2933.25,599.68,590.10,13.22,0000 0000 0000 0000 000000
2017-04-14 11:09:05,0.04,2.03,0.00,24.73,26.87,30.45,14.35,47.76,1012.44,2029.91,2759.35,2554.98,2932.55,600.17,590.21,13.27,0000 0000 0000 0000 000000
2017-04-14 11:14:07,0.06,2.03,0.00,24.80,26.87,30.42,14.28,47.72,1012.39,2029.95,2758.43,2554.25,2931.89,599.89,589.86,13.32,0000 0000 0000 0000 000000
2017-04-14 11:19:08,0.05,2.03,0.00,24.72,26.87,30.42,14.31,47.77,1012.46,2029.92,2757.35,2553.72,2931.02,599.91,590.04,13.37,0000 0000 0000 0000 000000
2017-04-14 11:24:09,0.06,2.04,0.00,24.59,26.88,30.45,14.32,47.87,1012.62,2029.91,2756.38,2553.02,2930.13,599.70,590.27,13.42,0000 0000 0000 0000 000000
2017-04-14 11:29:11,0.06,2.04,0.00,24.43,26.89,30.46,14.36,47.65,1012.64,2029.93,2755.43,2552.42,2929.48,600.05,590.91,13.47,0000 0000 0000 0000 000000
2017-04-14 11:34:12,0.02,2.04,0.00,24.32,26.89,30.44,14.38,47.91,1012.62,2029.82,2754.46,2551.90,2928.73,599.97,591.03,13.52,0000 0000 0000 0000 000000
2017-04-14 11:39:14,0.04,2.04,0.00,24.27,26.88,30.46,14.43,47.77,1012.57,2029.63,2753.45,2551.10,2927.97,599.91,590.93,13.57,0000 0000 0000 0000 000000
2017-04-14 11:44:15,0.09,2.05,0.00,24.22,26.87,30.51,14.40,47.80,1012.59,2029.72,2752.45,2550.45,2927.12,600.02,591.40,13.62,0000 0000 0000 0000 000000
2017-04-14 11:49:17,0.04,2.05,0.00,24.19,26.87,30.50,14.36,47.80,1012.60,2029.78,2751.49,2549.90,2926.32,600.10,591.40,13.67,0000 0000 0000 0000 000000
2017-04-14 11:54:18,0.06,2.05,0.00,24.18,26.87,30.55,14.40,47.87,1012.59,2029.78,2750.51,2549.05,2925.50,600.02,591.33,13.72,0000 0000 0000 0000 000000
2017-04-14 11:59:20,0.07,2.06,0.00,24.18,26.87,30.58,14.33,47.77,1012.51,2029.74,2749.40,2548.30,2924.69,600.01,591.36,13.77,0000 0000 0000 0000 000000
2017-04-14 12:04:21,0.05,2.06,0.00,24.16,26.87,30.61,14.46,47.83,1012.40,2029.67,2748.21,2547.64,2923.85,600.01,591.26,13.82,0000 0000 0000 0000 000000
2017-04-14 12:09:22,0.02,2.06,0.00,24.21,26.88,30.61,14.38,47.76,1012.44,2029.52,2747.07,2546.92,2922.89,599.84,591.08,13.87,0000 0000 0000 0000 000000
2017-04-14 12:14:23,0.06,2.06,0.00,24.54,26.90,30.59,14.36,47.75,1012.42,2029.31,2745.99,2546.08,2922.02,600.51,591.01,13.92,0000 0000 0000 0000 000000
2017-04-14 12:19:24,0.06,2.07,0.00,24.22,26.91,30.58,14.32,47.85,1012.36,2029.22,2744.87,2545.39,2921.13,599.64,590.89,13.97,0000 0000 0000 0000 000000
2017-04-14 12:24:26,0.05,2.07,0.00,24.30,26.92,30.63,14.42,47.81,1012.47,2029.11,2743.78,2544.67,2920.21,600.11,591.12,14.02,0000 0000 0000 0000 000000
2017-04-14 12:29:27,0.05,2.07,0.00,24.24,26.94,30.73,14.36,47.74,1012.50,2029.10,2742.77,2544.01,2919.47,600.01,591.15,14.07,0000 0000 0000 0000 000000
2017-04-14 12:34:28,0.06,2.08,0.00,24.11,26.95,30.75,14.37,47.53,1012.32,2029.07,2741.72,2543.35,2918.68,599.90,591.20,14.12,0000 0000 0000 0000 000000
2017-04-14 12:39:30,0.05,2.08,0.00,24.04,26.95,30.79,14.42,47.89,1012.33,2029.05,2740.64,2542.65,2917.91,599.93,591.20,14.17,0000 0000 0000 0000 000000
2017-04-14 12:44:31,0.05,2.08,0.00,24.01,26.95,30.81,14.39,47.87,1012.28,2029.06,2739.55,2541.96,2917.02,599.68,591.16,14.22,0000 0000 0000 0000 000000
2017-04-14 12:49:32,0.06,2.09,0.00,23.97,26.94,30.75,14.35,47.83,1012.27,2029.04,2738.47,2541.11,2916.13,599.95,591.46,14.27,0000 0000 0000 0000 000000
2017-04-14 12:54:33,0.06,2.09,0.00,23.94,26.93,30.77,14.43,47.75,1012.38,2029.04,2737.51,2540.62,2915.44,599.91,591.59,14.32,0000 0000 0000 0000 000000